Portada
METAR-TAF:

METAR-TAF

Aeropuertos :

Mahshahr, Irán

latitud: 30-33-23N, longitud: 049-09-07E, altitud: 2 m

Observación

El informe se hizo hace 1 hora y 17 minutos, a las 22:00 UTC
Viento 6 kt del este
Temperatura 19°C
Humedad 78%
Presión 1009 hPa
Visibilidad 10 km o más
Nubes dispersas a una altura de 4000 ft

METAR: OIAM 252200Z 09006KT 9999 SCT040 19/15 Q1009

Hora: 03:47 (23:17 UTC)


TAF: falta

Observaciones y pronósticos meteorológicos de más de 4000 aeropuertos (mensajes METAR y TAF).

Los puntos amarillos y rojos representan las estaciones disponibles.

Ponga el ratón en el punto deseado para ver el nombre de la estación.

Haga clic para ver las observaciones y los pronósticos meteorológicos.

Para cambiar el mapa : haga clic en los botones verdes con una cruz de color negro para hacer un zoom, en el botón verde con un guión para alejar o en las flechas verdes para mapas adyacentes.


METAR-TAF: